Time,TemperatureF,DewpointF,PressureIn,WindDirection,WindDirectionDegrees,WindSpeedMPH,WindSpeedGustMPH,Humidity,HourlyPrecipIn,Conditions,Clouds,dailyrainin,SoftwareType,DateUTC
2013-07-13 00:00:00,57.4,44.9,30.10,North,0,6.5,8.3,63,0.00,,,0.00,open2300-1.11,2013-07-13 07:00:00,
2013-07-13 00:10:00,57.0,44.5,30.10,NW,315,0.0,8.1,63,0.00,,,0.00,open2300-1.11,2013-07-13 07:10:00,
2013-07-13 00:20:00,56.8,44.3,30.10,NW,315,0.0,7.8,63,0.00,,,0.00,open2300-1.11,2013-07-13 07:20:00,
2013-07-13 00:30:00,56.5,44.4,30.10,NNW,337,0.0,7.2,64,0.00,,,0.00,open2300-1.11,2013-07-13 07:30:00,
2013-07-13 00:40:00,56.5,44.4,30.10,NW,315,5.6,8.7,64,0.00,,,0.00,open2300-1.11,2013-07-13 07:40:00,
2013-07-13 00:50:00,56.1,44.1,30.11,NW,315,0.0,6.9,64,0.00,,,0.00,open2300-1.11,2013-07-13 07:50:00,
2013-07-13 01:10:00,55.6,44.0,30.11,NW,315,4.7,6.9,65,0.00,,,0.00,open2300-1.11,2013-07-13 08:10:00,
2013-07-13 01:20:00,55.4,44.2,30.11,NW,315,3.8,7.2,66,0.00,,,0.00,open2300-1.11,2013-07-13 08:20:00,
2013-07-13 01:30:00,55.2,44.0,30.11,NW,315,4.9,7.6,66,0.00,,,0.00,open2300-1.11,2013-07-13 08:30:00,
2013-07-13 01:40:00,55.0,44.3,30.11,NW,315,4.2,7.8,67,0.00,,,0.00,open2300-1.11,2013-07-13 08:40:00,
2013-07-13 01:50:00,54.7,43.9,30.11,NNW,337,8.3,8.3,67,0.00,,,0.00,open2300-1.11,2013-07-13 08:50:00,
2013-07-13 02:10:00,54.7,44.3,30.12,NNW,337,0.0,8.3,68,0.00,,,0.00,open2300-1.11,2013-07-13 09:10:00,
2013-07-13 02:20:00,54.1,43.8,30.11,NW,315,0.0,6.9,68,0.00,,,0.00,open2300-1.11,2013-07-13 09:20:00,
2013-07-13 02:30:00,54.0,43.6,30.11,WNW,292,5.6,6.9,68,0.00,,,0.00,open2300-1.11,2013-07-13 09:30:00,
2013-07-13 02:40:00,53.8,43.8,30.11,WNW,292,3.8,8.3,69,0.00,,,0.00,open2300-1.11,2013-07-13 09:40:00,
2013-07-13 02:50:00,53.4,43.5,30.12,NW,315,0.0,7.6,69,0.00,,,0.00,open2300-1.11,2013-07-13 09:50:00,
2013-07-13 03:10:00,52.9,43.0,30.12,NW,315,0.0,6.5,69,0.00,,,0.00,open2300-1.11,2013-07-13 10:10:00,
2013-07-13 03:20:00,52.5,43.1,30.12,NNW,337,0.0,6.7,70,0.00,,,0.00,open2300-1.11,2013-07-13 10:20:00,
2013-07-13 03:30:00,52.3,42.9,30.12,NNW,337,0.0,7.8,70,0.00,,,0.00,open2300-1.11,2013-07-13 10:30:00,
2013-07-13 03:40:00,52.0,42.9,30.12,WNW,292,3.4,4.2,71,0.00,,,0.00,open2300-1.11,2013-07-13 10:40:00,
2013-07-13 03:50:00,51.6,42.6,30.12,NW,315,4.5,7.8,71,0.00,,,0.00,open2300-1.11,2013-07-13 10:50:00,
2013-07-13 04:10:00,50.9,42.2,30.12,NW,315,0.0,5.6,72,0.00,,,0.00,open2300-1.11,2013-07-13 11:10:00,
2013-07-13 04:20:00,50.7,42.0,30.12,NNW,337,0.0,5.4,72,0.00,,,0.00,open2300-1.11,2013-07-13 11:20:00,
2013-07-13 04:30:00,50.5,41.9,30.12,North,0,2.0,2.9,72,0.00,,,0.00,open2300-1.11,2013-07-13 11:30:00,
2013-07-13 04:40:00,50.4,42.0,30.12,NNW,337,4.5,5.4,73,0.00,,,0.00,open2300-1.11,2013-07-13 11:40:00,
2013-07-13 04:50:00,50.4,42.0,30.12,WNW,292,6.5,6.5,73,0.00,,,0.00,open2300-1.11,2013-07-13 11:50:00,
2013-07-13 05:00:00,50.4,42.0,30.12,NW,315,4.7,6.5,73,0.00,,,0.00,open2300-1.11,2013-07-13 12:00:00,
2013-07-13 05:10:00,50.4,42.0,30.12,NW,315,6.3,6.3,73,0.00,,,0.00,open2300-1.11,2013-07-13 12:10:00,
2013-07-13 05:20:00,50.2,41.8,30.13,NW,315,1.8,6.3,73,0.00,,,0.00,open2300-1.11,2013-07-13 12:20:00,
2013-07-13 05:30:00,49.8,41.8,30.13,NNW,337,0.0,6.5,74,0.00,,,0.00,open2300-1.11,2013-07-13 12:30:00,
2013-07-13 05:40:00,49.8,41.8,30.13,NW,315,0.0,2.9,74,0.00,,,0.00,open2300-1.11,2013-07-13 12:40:00,
2013-07-13 05:50:00,49.8,41.8,30.14,NW,315,1.3,6.0,74,0.00,,,0.00,open2300-1.11,2013-07-13 12:50:00,
2013-07-13 06:00:00,49.8,41.8,30.14,NNW,337,1.6,6.7,74,0.00,,,0.00,open2300-1.11,2013-07-13 13:00:00,
2013-07-13 06:10:00,49.8,41.8,30.14,NW,315,3.1,7.6,74,0.00,,,0.00,open2300-1.11,2013-07-13 13:10:00,
2013-07-13 06:20:00,50.7,42.7,30.14,North,0,1.6,3.8,74,0.00,,,0.00,open2300-1.11,2013-07-13 13:20:00,
2013-07-13 06:30:00,51.1,42.8,30.14,North,0,0.0,6.7,73,0.00,,,0.00,open2300-1.11,2013-07-13 13:30:00,
2013-07-13 06:40:00,51.6,43.3,30.14,NW,315,0.0,5.6,73,0.00,,,0.00,open2300-1.11,2013-07-13 13:40:00,
2013-07-13 06:50:00,52.3,43.6,30.15,NNW,337,2.0,7.8,72,0.00,,,0.00,open2300-1.11,2013-07-13 13:50:00,
2013-07-13 07:10:00,53.8,44.6,30.15,North,0,7.8,8.3,71,0.00,,,0.00,open2300-1.11,2013-07-13 14:10:00,
2013-07-13 07:20:00,54.3,44.8,30.15,NW,315,0.0,7.8,70,0.00,,,0.00,open2300-1.11,2013-07-13 14:20:00,
2013-07-13 07:30:00,55.2,45.3,30.15,WNW,292,0.0,6.5,69,0.00,,,0.00,open2300-1.11,2013-07-13 14:30:00,
2013-07-13 07:40:00,56.1,45.7,30.15,WNW,292,0.0,5.8,68,0.00,,,0.00,open2300-1.11,2013-07-13 14:40:00,
2013-07-13 07:50:00,56.7,46.2,30.15,NW,315,2.7,7.2,68,0.00,,,0.00,open2300-1.11,2013-07-13 14:50:00,
2013-07-13 08:00:00,57.0,46.1,30.15,NNW,337,0.0,7.6,67,0.00,,,0.00,open2300-1.11,2013-07-13 15:00:00,
2013-07-13 08:10:00,57.4,46.1,30.15,NNE,22,7.2,11.0,66,0.00,,,0.00,open2300-1.11,2013-07-13 15:10:00,
2013-07-13 08:20:00,58.5,46.7,30.15,North,0,2.0,12.3,65,0.00,,,0.00,open2300-1.11,2013-07-13 15:20:00,
2013-07-13 08:30:00,58.8,46.6,30.15,WNW,292,3.1,8.1,64,0.00,,,0.00,open2300-1.11,2013-07-13 15:30:00,
2013-07-13 08:40:00,59.5,46.9,30.15,NNW,337,6.9,7.6,63,0.00,,,0.00,open2300-1.11,2013-07-13 15:40:00,
2013-07-13 08:50:00,60.3,46.8,30.15,NNW,337,0.0,7.8,61,0.00,,,0.00,open2300-1.11,2013-07-13 15:50:00,
2013-07-13 09:00:00,60.6,46.8,30.15,NNW,337,0.0,7.8,60,0.00,,,0.00,open2300-1.11,2013-07-13 16:00:00,
2013-07-13 09:10:00,61.2,47.3,30.15,NNW,337,6.9,8.7,60,0.00,,,0.00,open2300-1.11,2013-07-13 16:10:00,
2013-07-13 09:20:00,61.7,46.8,30.15,NNW,337,7.6,8.5,58,0.00,,,0.00,open2300-1.11,2013-07-13 16:20:00,
2013-07-13 09:30:00,61.9,46.5,30.15,NNW,337,8.3,9.8,57,0.00,,,0.00,open2300-1.11,2013-07-13 16:30:00,
2013-07-13 09:40:00,62.2,46.8,30.14,NNW,337,6.7,9.8,57,0.00,,,0.00,open2300-1.11,2013-07-13 16:40:00,
2013-07-13 09:50:00,62.6,47.1,30.14,WNW,292,7.4,8.9,57,0.00,,,0.00,open2300-1.11,2013-07-13 16:50:00,
2013-07-13 10:00:00,63.1,47.1,30.14,North,0,3.4,10.7,56,0.00,,,0.00,open2300-1.11,2013-07-13 17:00:00,
2013-07-13 10:10:00,63.5,47.4,30.14,NNW,337,4.0,8.7,56,0.00,,,0.00,open2300-1.11,2013-07-13 17:10:00,
2013-07-13 10:20:00,64.4,48.2,30.13,NNW,337,7.4,11.9,56,0.00,,,0.00,open2300-1.11,2013-07-13 17:20:00,
2013-07-13 10:30:00,64.6,48.4,30.13,NW,315,12.5,13.0,56,0.00,,,0.00,open2300-1.11,2013-07-13 17:30:00,
2013-07-13 10:40:00,64.9,48.3,30.13,NNW,337,8.5,13.0,55,0.00,,,0.00,open2300-1.11,2013-07-13 17:40:00,
2013-07-13 10:50:00,65.8,48.7,30.12,North,0,9.8,12.5,54,0.00,,,0.00,open2300-1.11,2013-07-13 17:50:00,
2013-07-13 11:00:00,66.4,48.7,30.12,NNE,22,6.3,10.1,53,0.00,,,0.00,open2300-1.11,2013-07-13 18:00:00,
2013-07-13 11:10:00,66.9,48.7,30.12,NW,315,9.4,10.7,52,0.00,,,0.00,open2300-1.11,2013-07-13 18:10:00,
2013-07-13 11:20:00,67.6,48.9,30.11,NNW,337,7.4,13.0,51,0.00,,,0.00,open2300-1.11,2013-07-13 18:20:00,
2013-07-13 11:30:00,68.0,48.7,30.11,NW,315,6.3,15.7,50,0.00,,,0.00,open2300-1.11,2013-07-13 18:30:00,
2013-07-13 11:40:00,69.1,49.1,30.11,NNE,22,12.8,12.8,49,0.00,,,0.00,open2300-1.11,2013-07-13 18:40:00,
2013-07-13 11:50:00,70.3,49.7,30.11,NW,315,0.0,12.8,48,0.00,,,0.00,open2300-1.11,2013-07-13 18:50:00,
2013-07-13 12:00:00,70.9,50.1,30.11,NNW,337,8.3,11.6,48,0.00,,,0.00,open2300-1.11,2013-07-13 19:00:00,
2013-07-13 12:10:00,70.9,49.5,30.10,NW,315,2.0,8.9,47,0.00,,,0.00,open2300-1.11,2013-07-13 19:10:00,
2013-07-13 12:20:00,71.8,49.8,30.10,North,0,5.1,10.3,46,0.00,,,0.00,open2300-1.11,2013-07-13 19:20:00,
2013-07-13 12:30:00,72.1,49.5,30.10,North,0,1.6,13.6,45,0.00,,,0.00,open2300-1.11,2013-07-13 19:30:00,
2013-07-13 12:40:00,72.3,49.1,30.10,NNE,22,9.2,13.4,44,0.00,,,0.00,open2300-1.11,2013-07-13 19:40:00,
2013-07-13 12:50:00,72.9,49.5,30.10,North,0,6.7,13.4,44,0.00,,,0.00,open2300-1.11,2013-07-13 19:50:00,
2013-07-13 13:00:00,73.6,49.6,30.10,NNE,22,6.7,14.1,43,0.00,,,0.00,open2300-1.11,2013-07-13 20:00:00,
2013-07-13 13:10:00,74.1,50.1,30.09,West,270,3.8,13.6,43,0.00,,,0.00,open2300-1.11,2013-07-13 20:10:00,
2013-07-13 13:20:00,74.8,49.5,30.09,WNW,292,8.5,12.1,41,0.00,,,0.00,open2300-1.11,2013-07-13 20:20:00,
2013-07-13 13:30:00,75.0,50.3,30.08,NW,315,12.3,13.0,42,0.00,,,0.00,open2300-1.11,2013-07-13 20:30:00,
2013-07-13 13:40:00,75.6,49.6,30.07,North,0,5.6,13.6,40,0.00,,,0.00,open2300-1.11,2013-07-13 20:40:00,
2013-07-13 13:50:00,76.1,49.3,30.07,WNW,292,11.0,15.2,39,0.00,,,0.00,open2300-1.11,2013-07-13 20:50:00,
2013-07-13 14:00:00,76.6,49.8,30.07,North,0,9.6,13.6,39,0.00,,,0.00,open2300-1.11,2013-07-13 21:00:00,
2013-07-13 14:10:00,76.8,49.2,30.06,NNW,337,9.4,15.4,38,0.00,,,0.00,open2300-1.11,2013-07-13 21:10:00,
2013-07-13 14:20:00,76.8,49.2,30.06,NNW,337,16.8,16.8,38,0.00,,,0.00,open2300-1.11,2013-07-13 21:20:00,
2013-07-13 14:30:00,77.0,49.4,30.06,NNW,337,12.1,16.8,38,0.00,,,0.00,open2300-1.11,2013-07-13 21:30:00,
2013-07-13 14:40:00,77.0,49.4,30.05,North,0,8.9,15.7,38,0.00,,,0.00,open2300-1.11,2013-07-13 21:40:00,
2013-07-13 14:50:00,77.2,48.8,30.05,NNE,22,6.9,13.9,37,0.00,,,0.00,open2300-1.11,2013-07-13 21:50:00,
2013-07-13 15:00:00,77.5,49.1,30.05,NNW,337,6.7,15.4,37,0.00,,,0.00,open2300-1.11,2013-07-13 22:00:00,
2013-07-13 15:10:00,78.1,49.6,30.05,North,0,6.9,14.8,37,0.00,,,0.00,open2300-1.11,2013-07-13 22:10:00,
2013-07-13 15:20:00,78.6,49.3,30.05,North,0,8.7,14.1,36,0.00,,,0.00,open2300-1.11,2013-07-13 22:20:00,
2013-07-13 15:30:00,79.3,49.9,30.04,North,0,2.9,13.4,36,0.00,,,0.00,open2300-1.11,2013-07-13 22:30:00,
2013-07-13 15:40:00,79.3,49.1,30.04,NNW,337,13.6,13.6,35,0.00,,,0.00,open2300-1.11,2013-07-13 22:40:00,
2013-07-13 15:50:00,79.5,49.3,30.03,NNW,337,5.4,16.1,35,0.00,,,0.00,open2300-1.11,2013-07-13 22:50:00,
2013-07-13 16:00:00,79.9,48.8,30.03,WNW,292,6.5,13.6,34,0.00,,,0.00,open2300-1.11,2013-07-13 23:00:00,
2013-07-13 16:10:00,80.1,49.0,30.03,North,0,5.1,14.8,34,0.00,,,0.00,open2300-1.11,2013-07-13 23:10:00,
2013-07-13 16:20:00,80.2,47.6,30.03,North,0,7.4,16.1,32,0.00,,,0.00,open2300-1.11,2013-07-13 23:20:00,
2013-07-13 16:30:00,80.2,47.6,30.02,North,0,7.6,15.0,32,0.00,,,0.00,open2300-1.11,2013-07-13 23:30:00,
2013-07-13 16:40:00,80.4,47.8,30.02,NNE,22,7.8,12.1,32,0.00,,,0.00,open2300-1.11,2013-07-13 23:40:00,
2013-07-13 16:50:00,80.8,47.3,30.02,NW,315,11.9,13.2,31,0.00,,,0.00,open2300-1.11,2013-07-13 23:50:00,
2013-07-13 17:00:00,80.8,47.3,30.02,North,0,10.1,15.0,31,0.00,,,0.00,open2300-1.11,2013-07-14 00:00:00,
2013-07-13 17:10:00,81.0,47.5,30.02,North,0,9.2,13.0,31,0.00,,,0.00,open2300-1.11,2013-07-14 00:10:00,
2013-07-13 17:20:00,81.1,47.6,30.02,NNW,337,8.1,11.0,31,0.00,,,0.00,open2300-1.11,2013-07-14 00:20:00,
2013-07-13 17:30:00,81.0,46.7,30.02,NNW,337,9.2,11.4,30,0.00,,,0.00,open2300-1.11,2013-07-14 00:30:00,
2013-07-13 17:40:00,80.8,46.5,30.02,NNW,337,11.0,12.8,30,0.00,,,0.00,open2300-1.11,2013-07-14 00:40:00,
2013-07-13 17:50:00,80.4,47.0,30.01,NNW,337,6.7,13.4,31,0.00,,,0.00,open2300-1.11,2013-07-14 00:50:00,
2013-07-13 18:00:00,80.4,47.0,30.01,North,0,4.7,10.3,31,0.00,,,0.00,open2300-1.11,2013-07-14 01:00:00,
2013-07-13 18:10:00,80.4,47.0,30.01,NNW,337,8.7,13.0,31,0.00,,,0.00,open2300-1.11,2013-07-14 01:10:00,
2013-07-13 18:20:00,81.0,47.5,30.01,NNW,337,7.8,11.6,31,0.00,,,0.00,open2300-1.11,2013-07-14 01:20:00,
2013-07-13 18:30:00,81.1,47.6,30.00,NW,315,6.9,12.1,31,0.00,,,0.00,open2300-1.11,2013-07-14 01:30:00,
2013-07-13 18:40:00,81.1,46.8,30.01,North,0,6.0,14.3,30,0.00,,,0.00,open2300-1.11,2013-07-14 01:40:00,
2013-07-13 18:50:00,81.1,47.6,30.01,NNW,337,11.9,11.9,31,0.00,,,0.00,open2300-1.11,2013-07-14 01:50:00,
2013-07-13 19:00:00,80.8,47.3,30.01,NNE,22,6.7,13.2,31,0.00,,,0.00,open2300-1.11,2013-07-14 02:00:00,
2013-07-13 19:10:00,80.8,47.3,30.01,NW,315,2.0,13.0,31,0.00,,,0.00,open2300-1.11,2013-07-14 02:10:00,
2013-07-13 19:20:00,80.6,46.4,30.01,NNW,337,7.6,12.1,30,0.00,,,0.00,open2300-1.11,2013-07-14 02:20:00,
2013-07-13 19:30:00,80.4,46.2,30.01,NNW,337,6.7,13.0,30,0.00,,,0.00,open2300-1.11,2013-07-14 02:30:00,
2013-07-13 19:40:00,79.9,45.8,30.02,NNW,337,9.6,12.3,30,0.00,,,0.00,open2300-1.11,2013-07-14 02:40:00,
2013-07-13 19:50:00,79.5,45.4,30.01,North,0,5.4,12.8,30,0.00,,,0.00,open2300-1.11,2013-07-14 02:50:00,
2013-07-13 20:00:00,79.2,45.1,30.01,NNW,337,7.8,11.6,30,0.00,,,0.00,open2300-1.11,2013-07-14 03:00:00,
2013-07-13 20:10:00,78.6,45.4,30.01,North,0,1.1,13.6,31,0.00,,,0.00,open2300-1.11,2013-07-14 03:10:00,
2013-07-13 20:20:00,78.1,45.0,30.02,NNW,337,2.9,12.8,31,0.00,,,0.00,open2300-1.11,2013-07-14 03:20:00,
2013-07-13 20:30:00,77.2,45.0,30.02,NNW,337,0.0,10.1,32,0.00,,,0.00,open2300-1.11,2013-07-14 03:30:00,
2013-07-13 20:40:00,75.9,44.6,30.02,North,0,0.0,11.4,33,0.00,,,0.00,open2300-1.11,2013-07-14 03:40:00,
2013-07-13 20:50:00,74.8,44.4,30.02,NNE,22,0.9,9.8,34,0.00,,,0.00,open2300-1.11,2013-07-14 03:50:00,
2013-07-13 21:00:00,73.9,44.4,30.03,NNW,337,0.0,7.8,35,0.00,,,0.00,open2300-1.11,2013-07-14 04:00:00,
2013-07-13 21:10:00,73.2,44.5,30.03,North,0,7.4,7.4,36,0.00,,,0.00,open2300-1.11,2013-07-14 04:10:00,
2013-07-13 21:20:00,72.5,44.6,30.03,WNW,292,0.0,7.4,37,0.00,,,0.00,open2300-1.11,2013-07-14 04:20:00,
2013-07-13 21:30:00,71.6,45.3,30.04,NW,315,0.0,4.5,39,0.00,,,0.00,open2300-1.11,2013-07-14 04:30:00,
2013-07-13 21:40:00,70.7,45.8,30.04,WNW,292,0.2,7.6,41,0.00,,,0.00,open2300-1.11,2013-07-14 04:40:00,
2013-07-13 21:50:00,70.0,45.8,30.04,NNW,337,0.0,6.7,42,0.00,,,0.00,open2300-1.11,2013-07-14 04:50:00,
2013-07-13 22:00:00,69.4,45.9,30.05,NW,315,0.0,6.3,43,0.00,,,0.00,open2300-1.11,2013-07-14 05:00:00,
2013-07-13 22:10:00,68.7,46.4,30.05,WNW,292,0.0,8.3,45,0.00,,,0.00,open2300-1.11,2013-07-14 05:10:00,
2013-07-13 22:20:00,68.0,46.4,30.05,WNW,292,0.0,7.4,46,0.00,,,0.00,open2300-1.11,2013-07-14 05:20:00,
2013-07-13 22:30:00,67.6,46.6,30.05,NW,315,0.0,7.6,47,0.00,,,0.00,open2300-1.11,2013-07-14 05:30:00,
2013-07-13 22:40:00,66.9,46.6,30.06,NW,315,0.0,7.4,48,0.00,,,0.00,open2300-1.11,2013-07-14 05:40:00,
2013-07-13 22:50:00,66.6,47.4,30.06,NW,315,2.5,8.1,50,0.00,,,0.00,open2300-1.11,2013-07-14 05:50:00,
2013-07-13 23:00:00,66.0,47.4,30.06,WNW,292,3.4,7.4,51,0.00,,,0.00,open2300-1.11,2013-07-14 06:00:00,
2013-07-13 23:10:00,65.7,47.5,30.06,WNW,292,0.0,7.8,52,0.00,,,0.00,open2300-1.11,2013-07-14 06:10:00,
2013-07-13 23:20:00,65.1,48.0,30.06,North,0,0.0,7.8,54,0.00,,,0.00,open2300-1.11,2013-07-14 06:20:00,
2013-07-13 23:30:00,64.8,48.1,30.06,NW,315,0.0,8.9,55,0.00,,,0.00,open2300-1.11,2013-07-14 06:30:00,
2013-07-13 23:40:00,64.2,48.1,30.06,WNW,292,1.3,8.3,56,0.00,,,0.00,open2300-1.11,2013-07-14 06:40:00,
2013-07-13 23:50:00,64.0,48.4,30.06,NW,315,0.0,6.0,57,0.00,,,0.00,open2300-1.11,2013-07-14 06:50:00,